Starlink 32481

operational
NORAD ID: 62320 Int'l Des: 2024-239 Owner: SPXS Country: US Constellation: starlink
LEOCIRCULAR

Starlink 32481について

説明を読み込み中...

リアルタイム位置

3D地球を読み込み中...

次回通過

高度履歴

Altitude vs Time

uPlot chart will show altitude changes over time

軌道要素

1 62320U 24239V 25353.26065086 .00015034 00000-0 51847-3 0 9995
2 62320 53.1565 194.4529 0001351 77.4014 282.7137 15.30213498 57252
Epoch: Dec 19, 2025 • Age: 15 hours

現在のステータス

高度 494.0 km
速度 7.62 km/s
衛星直下点 -51.73°S, 31.28°E
打ち上げ日 Dec 13, 2024
運用期間 1 years
タイプ internet

技術仕様

分類 Payload
質量 730.00 kg
乾燥質量 700.00 kg
総質量 730.00 kg
長さ 0.30 m
直径 4.10 m
スパン 29.00 m
形状 Box + pan
製造者 SPXS
バスタイプ Starlink V2M
フェーズステータス In Orbit
所有者/国 SPXS/US

大規模コンステレーション

Loading constellations...